User: anonymous   Login
Location: ??????
(42.0089°N, 44.3281°E)
Time: 22:32:40
(UTC+00:00)
Language:

CZ-4C R/B - Orbit

View from above orbital plane
View from above orbital plane
View from above satellite
View from above satellite

Ground track
Ground track

The orbit data is extracted from the following two-line orbital elements,

1 32290U 07055B   22019.81574146  .00008607  00000-0  19583-3 0  9993
2 32290  97.6808 214.3081 0054216 255.3658 104.1573 15.41678196789561
Epoch (UTC): 19 January 2022 19:34:40
Eccentricity: 0.0054216
inclination: 97.6808°
perigee height: 404 km
apogee height: 478 km
right ascension of ascending node: 214.3081°
argument of perigee: 255.3658°
revolutions per day: 15.41678196
mean anomaly at epoch: 104.1573°
orbit number at epoch: 78956

The dashed part of the orbit path shows where the satellite is in the earth's shadow,  

DLR